Location: Kitchener
(43.4500°N, 80.5000°W)
Time: 13:19:42
(UTC-05:00)

Amateur Radio Satellites - All Passes

Search period start: 22 November 2017 12:49
Search period end: 23 November 2017 12:49
Location: Kitchener, 43.4500°N, 80.5000°W

Satellite Date Start Highest point End Downlink Frequencies (MHz)
Time Altitude Azimuth
POLYITAN 1 22 Nov 12:51:18 12:53:15 13° 270° (W) 12:55:13 437.675
ESTCUBE 1 22 Nov 12:56:36 13:00:23 27° 293° (WNW) 13:04:11 437.505/2401.250
O/OREOS (USA 219) 22 Nov 13:03:08 13:07:27 42° 107° (ESE) 13:11:47 437.305
VELOX 1 22 Nov 13:10:29 13:14:58 74° 103° (ESE) 13:19:24 145.980
BUGSAT 1 22 Nov 13:11:31 13:15:21 35° 262° (W) 13:19:12 437.445
Gurwin Techsat 1B 22 Nov 13:11:37 13:16:56 78° 74° (ENE) 13:22:16 435.225
50 SAT 22 Nov 13:33:04 13:35:54 28° 97° (E) 13:38:42 437.505
DX 1 22 Nov 13:51:44 13:55:58 46° 100° (E) 14:00:10 434.975-435.025
FALCONSAT 3 22 Nov 13:52:59 13:54:24 12° 201° (SSW) 13:55:50 435.103
SPROUT 22 Nov 13:58:14 14:01:30 22° 294° (WNW) 14:04:45 437.525
AO-85 22 Nov 14:01:33 14:05:26 25° 247° (WSW) 14:09:31 145.980
AO-7 22 Nov 14:06:57 14:14:53 53° 63° (ENE) 14:22:52 .
M-CUBED/EXP-1 PRIME 22 Nov 14:13:52 14:17:25 62° 254° (WSW) 14:21:17 437.505
Oscar 19 22 Nov 14:16:55 14:20:38 20° 268° (W) 14:24:24 437.125/150
UKube-1 22 Nov 14:30:46 14:35:07 76° 103° (ESE) 14:39:26 .
ITAMSAT 1 22 Nov 14:31:41 14:36:31 39° 68° (ENE) 14:41:21 435.822/435.867
MOZHAYETS 4 22 Nov 14:32:12 14:34:58 16° 91° (E) 14:37:42
ITUPSAT 1 22 Nov 14:34:01 14:35:43 12° 89° (E) 14:37:25 437.325
NO-84 22 Nov 14:37:14 14:40:35 36° 132° (SE) 14:44:12 435.350 FM
O/OREOS (USA 219) 22 Nov 14:43:22 14:47:02 23° 305° (NW) 14:50:43 437.305
VELOX 1 22 Nov 14:48:51 14:50:47 13° 300° (WNW) 14:52:44 145.980
Gurwin Techsat 1B 22 Nov 14:54:47 14:57:28 14° 271° (W) 15:00:10 435.225
50 SAT 22 Nov 15:05:48 15:07:45 15° 294° (WNW) 15:09:41 437.505
DX 1 22 Nov 15:28:46 15:31:48 19° 297° (WNW) 15:34:49 434.975-435.025
YUBILEINY 22 Nov 15:41:37 15:49:31 34° 68° (ENE) 15:57:20 435.215
BEESAT 22 Nov 15:58:35 16:03:22 86° 103° (ESE) 16:08:06 436.000
AO-7 22 Nov 16:00:22 16:07:51 37° 262° (W) 16:15:26 .
MOZHAYETS 4 22 Nov 16:07:58 16:12:26 55° 287° (WNW) 16:16:54
UKube-1 22 Nov 16:08:55 16:10:30 12° 300° (WNW) 16:12:06 .
ITUPSAT 1 22 Nov 16:09:19 16:14:05 77° 286° (WNW) 16:18:50 437.325
ITAMSAT 1 22 Nov 16:11:35 16:16:02 28° 265° (W) 16:20:31 435.822/435.867
DOVE 4 22 Nov 16:12:03 16:17:00 56° 72° (ENE) 16:22:09 437.250
NO-84 22 Nov 16:14:24 16:17:55 36° 332° (NNW) 16:21:41 435.350 FM
CUTE-I 22 Nov 16:16:28 16:19:26 15° 58° (ENE) 16:22:24 437.470
CUBESAT XI-V 22 Nov 16:23:15 16:27:51 52° 100° (E) 16:32:25 437.345
HO-68 22 Nov 16:29:58 16:33:48 15° 50° (NE) 16:37:37 435.675
XW-2D 22 Nov 16:37:37 16:40:06 17° 66° (ENE) 16:42:36 145.860 - 145.880
XW-2B 22 Nov 16:51:54 16:54:54 23° 69° (ENE) 16:57:56 145.730 - 145.750
NUDT-PHONESAT 22 Nov 17:00:24 17:03:08 20° 68° (ENE) 17:05:53 437.300
XW-2C 22 Nov 17:16:54 17:20:30 47° 73° (ENE) 17:24:06 145.795 - 145.815
LilacSat-2 22 Nov 17:20:45 17:24:25 57° 74° (ENE) 17:28:08 437.200
RS-15 22 Nov 17:23:50 17:34:00 32° 104° (ESE) 17:44:08 29.354- 29.394
XW-2F 22 Nov 17:26:04 17:29:43 57° 74° (ENE) 17:33:23 145.980 - 146.000
CUBEBUG 2 22 Nov 17:33:37 17:35:43 13° 62° (ENE) 17:37:46 437.445
YUBILEINY 22 Nov 17:38:09 17:46:44 57° 269° (W) 17:55:15 435.215
BEESAT 22 Nov 17:38:31 17:40:26 12° 302° (WNW) 17:42:20 436.000
KKS-1 22 Nov 17:48:36 17:53:06 88° 111° (ESE) 17:57:32 437.445
KAITUO 1B 22 Nov 17:51:11 17:54:51 89° 252° (WSW) 17:58:34 145.475/437.950
DOVE 4 22 Nov 17:51:26 17:55:01 19° 270° (W) 17:58:44 437.250
CUTE-I 22 Nov 17:53:23 17:58:45 84° 254° (WSW) 18:04:11 437.470
NO-84 22 Nov 17:53:32 17:56:13 17° 353° (N) 17:59:01 435.350 FM
CUTE 1.7 + AOD 2 22 Nov 17:55:14 17:58:57 32° 70° (ENE) 18:02:42 437.475
CUBESAT XI-V 22 Nov 18:01:35 18:04:49 19° 297° (WNW) 18:08:03 437.345
STARS 22 Nov 18:08:22 18:12:42 58° 101° (E) 18:17:00 437.465
XW-2D 22 Nov 18:10:36 18:14:01 34° 263° (W) 18:17:28 145.860 - 145.880
HO-68 22 Nov 18:13:07 18:20:15 70° 70° (ENE) 18:27:25 435.675
SEEDS 22 Nov 18:22:25 18:26:16 38° 71° (ENE) 18:30:09 437.485
AAUSAT CUBESAT 2 22 Nov 18:25:23 18:28:17 19° 65° (ENE) 18:31:12 437.432
UWE-3 22 Nov 18:25:25 18:28:58 24° 67° (ENE) 18:32:27 435.000/436.395/437.385
XW-2B 22 Nov 18:25:55 18:29:00 24° 265° (W) 18:32:06 145.730 - 145.750
NUDT-PHONESAT 22 Nov 18:33:41 18:36:49 27° 264° (W) 18:39:59 437.300
XW-2C 22 Nov 18:53:24 18:54:56 12° 270° (W) 18:56:29 145.795 - 145.815
LilacSat-2 22 Nov 18:58:40 18:59:04 10° 271° (W) 18:59:28 437.200
AO-73 22 Nov 19:02:01 19:05:36 27° 69° (ENE) 19:09:09 145.935
CUBEBUG 2 22 Nov 19:07:13 19:11:47 72° 258° (WSW) 19:16:14 437.445
Oscar 11 22 Nov 19:16:34 19:20:08 26° 68° (ENE) 19:23:44 .
KKS-1 22 Nov 19:27:50 19:28:55 11° 302° (WNW) 19:30:01 437.445
XW-2A 22 Nov 19:29:50 19:33:07 65° 259° (WSW) 19:36:26 145.665 - 145.685
CUTE 1.7 + AOD 2 22 Nov 19:31:29 19:34:49 23° 266° (W) 19:38:11 437.475
NO-84 22 Nov 19:31:44 19:34:49 20° 14° (NNE) 19:37:57 435.350 FM
FO-29 22 Nov 19:32:42 19:38:03 20° 86° (E) 19:43:10 435.910
RS-15 22 Nov 19:32:59 19:45:21 80° 306° (NW) 19:57:39 29.354- 29.394
STRAND 1 22 Nov 19:33:54 19:38:51 48° 100° (E) 19:43:44 437.568
nSIGHT-1 22 Nov 19:37:56 19:40:00 16° 133° (SE) 19:42:05 .
CUTE-I 22 Nov 19:38:22 19:39:34 11° 273° (W) 19:40:47 437.470
STARS 22 Nov 19:46:00 19:48:34 15° 298° (WNW) 19:51:07 437.465
ZACube-1 22 Nov 19:47:18 19:51:37 87° 259° (W) 19:55:52 437.345
SEEDS 22 Nov 19:59:07 20:02:05 19° 268° (W) 20:05:04 437.485
AAUSAT CUBESAT 2 22 Nov 19:59:34 20:03:27 39° 263° (W) 20:07:21 437.432
UWE-3 22 Nov 20:01:16 20:05:16 33° 263° (W) 20:09:12 435.000/436.395/437.385
HO-68 22 Nov 20:03:01 20:08:32 24° 268° (W) 20:14:07 435.675
DELFI C3 22 Nov 20:15:07 20:18:14 22° 67° (ENE) 20:21:21 145.870
ISS 22 Nov 20:26:15 20:29:18 37° 140° (SE) 20:32:21 437.550
AO-73 22 Nov 20:38:05 20:41:46 28° 264° (W) 20:45:25 145.935
Oscar 11 22 Nov 20:52:26 20:56:10 29° 265° (W) 20:59:56 .
EO-88 22 Nov 20:53:36 20:56:42 27° 70° (ENE) 20:59:49 145.990 - 145.960
Max Valier Satellite 22 Nov 20:58:51 21:02:21 46° 73° (ENE) 21:05:52 145.860
NO-84 22 Nov 21:08:47 21:12:55 52° 33° (NNE) 21:17:06 435.350 FM
nSIGHT-1 22 Nov 21:12:43 21:15:55 66° 331° (NNW) 21:19:07 .
STRAND 1 22 Nov 21:13:44 21:17:42 23° 297° (WNW) 21:21:38 437.568
FO-29 22 Nov 21:16:05 21:24:01 87° 286° (WNW) 21:31:24 435.910
SO-50 22 Nov 21:19:52 21:24:04 42° 118° (ESE) 21:28:19 436.795
O/OREOS (USA 219) 22 Nov 21:34:06 21:36:19 13° 49° (NE) 21:38:30 437.305
UNISAT 6 22 Nov 21:39:21 21:43:10 31° 96° (E) 21:46:57 437.425
TIGRISAT 22 Nov 21:43:13 21:47:01 31° 96° (E) 21:50:47 435.000
RS-15 22 Nov 21:49:13 22:00:04 34° 334° (NNW) 22:10:45 29.354- 29.394
DELFI C3 22 Nov 21:49:19 21:52:48 29° 264° (W) 21:56:20 145.870
ISS 22 Nov 22:02:43 22:05:47 36° 338° (NNW) 22:08:51 437.550
PRISM 22 Nov 22:06:40 22:09:48 20° 94° (E) 22:12:55 437.425
ESTCUBE 1 22 Nov 22:20:06 22:24:06 33° 69° (ENE) 22:28:08 437.505/2401.250
EO-88 22 Nov 22:27:41 22:30:21 19° 266° (W) 22:33:01 145.990 - 145.960
Max Valier Satellite 22 Nov 22:35:01 22:36:25 12° 269° (W) 22:37:50 145.860
LO-87 22 Nov 22:45:01 22:48:37 84° 76° (ENE) 22:52:14 145.935 - 145.965
NO-84 22 Nov 22:46:29 22:50:07 27° 231° (SW) 22:53:43 435.350 FM
nSIGHT-1 22 Nov 22:50:01 22:52:35 21° 349° (N) 22:55:08 .
SO-50 22 Nov 23:00:52 23:04:40 26° 317° (NW) 23:08:31 436.795
FO-29 22 Nov 23:02:24 23:07:54 21° 305° (NW) 23:13:15 435.910
AIST 2D 22 Nov 23:10:03 23:13:16 32° 97° (E) 23:16:27 435.315
O/OREOS (USA 219) 22 Nov 23:11:49 23:16:22 83° 249° (WSW) 23:20:52 437.305
PCSat 22 Nov 23:13:33 23:17:46 24° 107° (ESE) 23:22:00 145.827
SPROUT 22 Nov 23:16:02 23:19:49 31° 69° (ENE) 23:23:36 437.525
UNISAT 6 22 Nov 23:16:18 23:19:45 24° 293° (WNW) 23:23:10 437.425
TIGRISAT 22 Nov 23:20:09 23:23:34 24° 293° (WNW) 23:26:59 435.000
QB50P2 22 Nov 23:20:53 23:23:40 17° 92° (E) 23:26:25 145.880/145.840
ISS 22 Nov 23:40:28 23:42:55 19° 357° (N) 23:45:22 437.550
PRISM 22 Nov 23:41:22 23:45:09 35° 290° (WNW) 23:48:56 437.425
ESTCUBE 1 22 Nov 23:57:16 00:00:56 25° 266° (W) 00:04:38 437.505/2401.250
50 SAT 23 Nov 00:02:34 00:03:45 12° 65° (ENE) 00:04:55 437.505
DUCHIFAT 1 23 Nov 00:06:37 00:10:30 36° 98° (E) 00:14:20 145.980
RS-15 23 Nov 00:07:39 00:17:32 27° 9° (N) 00:27:02 29.354- 29.394
VELOX 1 23 Nov 00:08:18 00:12:43 75° 73° (ENE) 00:17:11 145.980
EO-79 23 Nov 00:16:08 00:20:19 62° 102° (ESE) 00:24:27 145.935-145.965
NANOSAT C BR1 23 Nov 00:18:07 00:22:15 57° 101° (E) 00:26:21 145.865
nSIGHT-1 23 Nov 00:27:05 00:29:36 20° 10° (N) 00:32:05 .
POLYITAN 1 23 Nov 00:31:58 00:36:11 87° 280° (W) 00:40:22 437.675
AIST 2D 23 Nov 00:43:55 00:46:10 16° 293° (WNW) 00:48:26 435.315
Oscar 19 23 Nov 00:47:34 00:50:45 16° 91° (E) 00:53:55 437.125/150
DX 1 23 Nov 00:47:58 00:52:09 46° 71° (ENE) 00:56:21 434.975-435.025
BUGSAT 1 23 Nov 00:51:55 00:55:24 27° 96° (E) 00:58:50 437.445
SPROUT 23 Nov 00:52:12 00:55:42 24° 265° (W) 00:59:12 437.525
PCSat 23 Nov 00:55:30 01:00:47 53° 306° (NW) 01:06:07 145.827
QB50P2 23 Nov 00:55:40 00:59:38 42° 289° (WNW) 01:03:36 145.880/145.840
ISS 23 Nov 01:17:15 01:20:08 28° 17° (NNE) 01:23:00 437.550
UKube-1 23 Nov 01:25:48 01:30:06 74° 74° (ENE) 01:34:26 .
Gurwin Techsat 1B 23 Nov 01:27:07 01:31:39 28° 95° (E) 01:36:09 435.225
BEESAT 23 Nov 01:30:51 01:33:23 14° 60° (ENE) 01:35:55 436.000
50 SAT 23 Nov 01:32:23 01:35:27 39° 261° (W) 01:38:32 437.505
MOZHAYETS 4 23 Nov 01:35:13 01:38:18 18° 63° (ENE) 01:41:24
ITUPSAT 1 23 Nov 01:41:11 01:44:19 18° 62° (ENE) 01:47:28 437.325
DUCHIFAT 1 23 Nov 01:42:50 01:45:54 20° 294° (WNW) 01:48:58 145.980
VELOX 1 23 Nov 01:48:29 01:49:40 11° 271° (W) 01:50:51 145.980
EO-79 23 Nov 01:53:34 01:55:33 13° 298° (WNW) 01:57:31 145.935-145.965
NANOSAT C BR1 23 Nov 01:55:18 01:57:28 14° 298° (WNW) 01:59:38 145.865
nSIGHT-1 23 Nov 02:03:07 02:06:18 58° 29° (NNE) 02:09:27 .
AO-7 23 Nov 02:09:51 02:13:29 13° 86° (E) 02:17:06 .
BEESAT 2 23 Nov 02:14:43 02:16:33 13° 109° (ESE) 02:18:22 435.950
RS-15 23 Nov 02:22:10 02:33:48 51° 41° (NE) 02:44:45 29.354- 29.394
Oscar 19 23 Nov 02:25:23 02:30:30 65° 288° (WNW) 02:35:37 437.125/150
DX 1 23 Nov 02:25:39 02:28:33 17° 268° (W) 02:31:28 434.975-435.025
BUGSAT 1 23 Nov 02:27:22 02:30:39 24° 293° (WNW) 02:33:54 437.445
BEESAT 3 23 Nov 02:33:23 02:37:21 72° 122° (ESE) 02:41:21 437.485
PCSat 23 Nov 02:43:13 02:45:28 12° 327° (NNW) 02:47:43 145.827
ITAMSAT 1 23 Nov 02:45:32 02:47:16 12° 88° (E) 02:48:59 435.822/435.867
ISS 23 Nov 02:53:35 02:56:48 63° 217° (SW) 03:00:02 437.550
UKube-1 23 Nov 03:05:45 03:06:36 10° 271° (W) 03:07:28 .
BEESAT 23 Nov 03:05:48 03:10:33 73° 257° (WSW) 03:15:20 436.000
Gurwin Techsat 1B 23 Nov 03:06:44 03:11:42 40° 292° (WNW) 03:16:37 435.225
MOZHAYETS 4 23 Nov 03:10:39 03:15:04 50° 261° (W) 03:19:31
KKS-1 23 Nov 03:14:37 03:15:53 11° 59° (ENE) 03:17:09 437.445
ITUPSAT 1 23 Nov 03:16:58 03:21:41 58° 259° (WSW) 03:26:25 437.325
M-CUBED/EXP-1 PRIME 23 Nov 03:24:10 03:28:46 78° 109° (ESE) 03:33:25 437.505
CUBESAT XI-V 23 Nov 03:27:21 03:31:50 57° 73° (ENE) 03:36:22 437.345
nSIGHT-1 23 Nov 03:39:57 03:42:15 18° 226° (SW) 03:44:32 .
BEESAT 2 23 Nov 03:49:45 03:53:44 63° 307° (NW) 03:57:46 435.950
AO-7 23 Nov 03:59:18 04:07:40 70° 106° (ESE) 04:16:00 .
SO-50 23 Nov 04:10:54 04:12:38 12° 31° (NNE) 04:14:24 436.795
DOVE 4 23 Nov 04:11:25 04:14:22 15° 88° (E) 04:17:12 437.250
BEESAT 3 23 Nov 04:12:50 04:15:20 16° 320° (NW) 04:17:51 437.485
AO-85 23 Nov 04:16:32 04:20:24 89° 120° (ESE) 04:24:29 145.980
ITAMSAT 1 23 Nov 04:22:10 04:27:25 88° 284° (WNW) 04:32:36 435.822/435.867
RS-15 23 Nov 04:35:07 04:46:31 58° 247° (WSW) 04:57:19 29.354- 29.394
YUBILEINY 23 Nov 04:44:23 04:52:07 37° 85° (E) 04:59:53 435.215
KKS-1 23 Nov 04:47:14 04:51:44 88° 256° (WSW) 04:56:15 437.445
M-CUBED/EXP-1 PRIME 23 Nov 05:00:06 05:02:34 15° 304° (NW) 05:05:03 437.505
STARS 23 Nov 05:05:32 05:09:54 59° 72° (ENE) 05:14:16 437.465
CUBESAT XI-V 23 Nov 05:06:52 05:09:34 15° 270° (W) 05:12:16 437.345
STRAND 1 23 Nov 05:16:02 05:17:30 11° 56° (NE) 05:18:59 437.568
BEESAT 2 23 Nov 05:31:09 05:32:16 11° 326° (NNW) 05:33:23 435.950
XW-2D 23 Nov 05:41:53 05:44:48 21° 94° (E) 05:47:42 145.860 - 145.880
HO-68 23 Nov 05:43:56 05:45:11 10° 84° (E) 05:46:25 435.675
DOVE 4 23 Nov 05:47:25 05:52:34 68° 286° (WNW) 05:57:26 437.250
SO-50 23 Nov 05:49:33 05:54:07 54° 51° (NE) 05:58:44 436.795
FO-29 23 Nov 05:49:49 05:51:42 11° 46° (NE) 05:53:37 435.910
AO-7 23 Nov 05:52:53 05:59:48 30° 306° (NW) 06:06:43 .
XW-2B 23 Nov 05:56:27 05:59:49 29° 96° (E) 06:03:09 145.730 - 145.750
AO-85 23 Nov 05:59:24 06:01:29 14° 325° (NW) 06:03:36 145.980
NUDT-PHONESAT 23 Nov 06:02:10 06:05:10 23° 95° (E) 06:08:11 437.300
ITAMSAT 1 23 Nov 06:03:44 06:06:05 13° 303° (WNW) 06:08:26 435.822/435.867
CUTE-I 23 Nov 06:09:29 06:14:24 35° 97° (E) 06:19:16 437.470
XW-2C 23 Nov 06:21:52 06:25:40 61° 101° (E) 06:29:27 145.795 - 145.815
LilacSat-2 23 Nov 06:26:35 06:30:25 76° 102° (ESE) 06:34:16 437.200
XW-2F 23 Nov 06:30:31 06:34:19 73° 102° (ESE) 06:38:07 145.980 - 146.000
YUBILEINY 23 Nov 06:40:07 06:48:35 52° 285° (WNW) 06:57:10 435.215
STARS 23 Nov 06:44:18 06:46:36 14° 269° (W) 06:48:53 437.465
STRAND 1 23 Nov 06:50:40 06:55:48 77° 75° (ENE) 07:00:58 437.568
RS-15 23 Nov 06:53:58 06:55:56 11° 269° (W) 06:57:54 29.354- 29.394
KAITUO 1B 23 Nov 06:54:36 06:58:23 73° 284° (WNW) 07:02:08 145.475/437.950
CUBEBUG 2 23 Nov 06:57:34 07:00:40 20° 93° (E) 07:03:44 437.445
CUTE 1.7 + AOD 2 23 Nov 07:13:51 07:18:03 54° 100° (E) 07:22:15 437.475
XW-2D 23 Nov 07:15:40 07:18:58 29° 290° (WNW) 07:22:17 145.860 - 145.880
HO-68 23 Nov 07:27:03 07:34:13 66° 103° (ESE) 07:41:20 435.675
FO-29 23 Nov 07:28:19 07:34:49 50° 67° (ENE) 07:42:03 435.910
SO-50 23 Nov 07:30:53 07:34:12 20° 249° (WSW) 07:37:34 436.795
XW-2B 23 Nov 07:30:54 07:33:49 21° 292° (WNW) 07:36:43 145.730 - 145.750
ZACube-1 23 Nov 07:35:22 07:37:54 16° 92° (E) 07:40:26 437.345
NUDT-PHONESAT 23 Nov 07:35:54 07:38:57 24° 291° (WNW) 07:42:01 437.300
SEEDS 23 Nov 07:39:56 07:44:11 65° 101° (E) 07:48:24 437.485
AAUSAT CUBESAT 2 23 Nov 07:40:16 07:43:54 28° 95° (E) 07:47:29 437.432
UWE-3 23 Nov 07:49:04 07:53:00 41° 98° (E) 07:56:56 435.000/436.395/437.385
CUTE-I 23 Nov 07:49:39 07:54:22 32° 294° (WNW) 07:59:04 437.470
XW-2C 23 Nov 07:58:08 07:59:20 11° 297° (WNW) 08:00:32 145.795 - 145.815
PCSat 23 Nov 07:59:09 08:03:48 28° 46° (NE) 08:08:25 145.827
XW-2A 23 Nov 08:22:27 08:25:49 75° 284° (WNW) 08:29:10 145.665 - 145.685
AO-73 23 Nov 08:23:50 08:27:50 46° 99° (E) 08:31:51 145.935
STRAND 1 23 Nov 08:33:02 08:35:33 14° 271° (W) 08:38:03 437.568
CUBEBUG 2 23 Nov 08:33:37 08:37:23 34° 290° (WNW) 08:41:08 437.445
Oscar 11 23 Nov 08:37:38 08:41:49 45° 99° (E) 08:45:58 .
UNISAT 6 23 Nov 08:38:53 08:42:56 33° 69° (ENE) 08:46:56 437.425
TIGRISAT 23 Nov 08:42:35 08:46:39 33° 69° (ENE) 08:50:38 435.000
YUBILEINY 23 Nov 08:46:26 08:47:58 10° 310° (NW) 08:49:29 435.215
CUTE 1.7 + AOD 2 23 Nov 08:50:57 08:53:26 15° 297° (WNW) 08:55:55 437.475
PRISM 23 Nov 08:57:10 08:59:59 18° 64° (ENE) 09:02:49 437.425
ZACube-1 23 Nov 09:10:27 09:14:25 45° 288° (WNW) 09:18:24 437.345
FO-29 23 Nov 09:14:01 09:20:04 34° 268° (W) 09:26:44 435.910
HO-68 23 Nov 09:15:36 09:21:24 27° 302° (WNW) 09:27:11 435.675
AAUSAT CUBESAT 2 23 Nov 09:15:45 09:19:15 26° 292° (WNW) 09:22:44 437.432
SEEDS 23 Nov 09:17:21 09:19:19 13° 298° (WNW) 09:21:17 437.485
DELFI C3 23 Nov 09:24:29 09:28:01 29° 96° (E) 09:31:31 145.870
UWE-3 23 Nov 09:26:22 09:29:10 18° 295° (WNW) 09:31:56 435.000/436.395/437.385
PCSat 23 Nov 09:42:12 09:47:28 51° 246° (WSW) 09:52:40 145.827
AIST 2D 23 Nov 09:46:13 09:48:12 15° 66° (ENE) 09:50:11 435.315
EO-88 23 Nov 09:53:57 09:57:12 30° 97° (E) 10:00:27 145.990 - 145.960
FALCONSAT 3 23 Nov 10:00:45 10:03:31 20° 170° (S) 10:06:19 435.103
Max Valier Satellite 23 Nov 10:00:50 10:04:27 54° 100° (E) 10:08:03 145.860
AO-73 23 Nov 10:01:08 10:03:43 16° 296° (WNW) 10:06:18 145.935
Oscar 11 23 Nov 10:14:39 10:17:37 18° 295° (WNW) 10:20:34 .
QB50P2 23 Nov 10:14:50 10:17:26 16° 64° (ENE) 10:20:03 145.880/145.840
UNISAT 6 23 Nov 10:15:54 10:19:39 25° 265° (W) 10:23:23 437.425
TIGRISAT 23 Nov 10:19:35 10:23:20 25° 265° (W) 10:27:03 435.000
BEESAT 2 23 Nov 10:29:31 10:31:58 15° 39° (NE) 10:34:24 435.950
PRISM 23 Nov 10:31:01 10:34:55 42° 261° (W) 10:38:54 437.425
BEESAT 3 23 Nov 10:48:55 10:52:49 58° 53° (NE) 10:56:39 437.485
DUCHIFAT 1 23 Nov 10:59:12 11:02:56 31° 69° (ENE) 11:06:39 145.980
DELFI C3 23 Nov 10:59:27 11:02:37 23° 293° (WNW) 11:05:44 145.870
AO-85 23 Nov 11:06:11 11:09:25 18° 40° (NE) 11:12:47 145.980
EO-79 23 Nov 11:09:08 11:13:15 52° 73° (ENE) 11:17:22 145.935-145.965
NANOSAT C BR1 23 Nov 11:10:47 11:14:51 48° 72° (ENE) 11:18:55 145.865
AIST 2D 23 Nov 11:17:53 11:21:03 34° 263° (W) 11:24:17 435.315
POLYITAN 1 23 Nov 11:25:01 11:29:14 79° 77° (ENE) 11:33:29 437.675
EO-88 23 Nov 11:28:03 11:30:38 19° 293° (WNW) 11:33:14 145.990 - 145.960
Max Valier Satellite 23 Nov 11:36:33 11:37:48 11° 297° (WNW) 11:39:02 145.860
FALCONSAT 3 23 Nov 11:39:06 11:42:02 22° 186° (S) 11:44:58 435.103
BUGSAT 1 23 Nov 11:42:33 11:45:55 24° 67° (ENE) 11:49:16 437.445
LO-87 23 Nov 11:43:45 11:47:19 89° 105° (ESE) 11:50:50 145.935 - 145.965
ESTCUBE 1 23 Nov 11:47:17 11:51:48 62° 101° (E) 11:56:17 437.505/2401.250
QB50P2 23 Nov 11:48:42 11:52:50 50° 260° (W) 11:56:57 145.880/145.840
VELOX 1 23 Nov 11:58:50 12:00:51 13° 90° (E) 12:02:52 145.980
Oscar 19 23 Nov 12:05:09 12:09:25 28° 65° (ENE) 12:13:42 437.125/150
BEESAT 2 23 Nov 12:06:09 12:10:11 76° 239° (WSW) 12:14:09 435.950
BEESAT 3 23 Nov 12:27:58 12:29:51 13° 250° (WSW) 12:31:44 437.485
DUCHIFAT 1 23 Nov 12:35:14 12:38:36 23° 265° (W) 12:41:59 145.980
SPROUT 23 Nov 12:35:31 12:39:39 49° 99° (E) 12:43:45 437.525
M-CUBED/EXP-1 PRIME 23 Nov 12:39:48 12:40:54 11° 54° (NE) 12:42:02 437.505
